Temp
-14 -14 -14 -14 -13 -13 -13 -13 -13 -13 -13 -13 -13 -13 -13 -13 -13 -13 -13 -13 -13 -14 -14 -14 -14 -14 -14 -14 -14 -14 -14 -14 -14 -14 -13 -13 -13 -13 -13 -13 -13 -13
-14 -14 -14 -14 -14 -14 -14 -14 -14 -14 -13 -13 -13 -13 -13 -13 -13 -14 -14 -14 -14 -14 -14 -14 -14 -14 -14 -14 -14 -14 -14 -14 -14 -14 -13 -13 -13 -13 -13 -13 -13 -13
-15 -14 -14 -14 -14 -14 -14 -14 -14 -14 -14 -13 -13 -13 -13 -14 -14 -14 -14 -14 -14 -14 -14 -14 -14 -14 -14 -14 -14 -14 -14 -14 -14 -14 -13 -13 -13 -13 -13 -13 -13 -13
-15 -15 -15 -14 -14 -14 -14 -14 -14 -14 -14 -14 -14 -14 -14 -14 -14 -14 -14 -14 -14 -14 -14 -15 -15 -15 -15 -14 -14 -14 -14 -14 -14 -14 -13 -13 -13 -13 -13 -13 -13 -13
-15 -15 -14 -14 -14 -14 -14 -14 -14 -14 -14 -14 -14 -14 -14 -14 -14 -14 -14 -14 -14 -14 -15 -15 -15 -15 -15 -15 -15 -14 -14 -14 -14 -14 -14 -13 -13 -13 -13 -13 -13 -13
-15 -15 -15 -14 -14 -14 -14 -14 -14 -14 -14 -14 -14 -14 -14 -14 -14 -14 -14 -14 -14 -14 -15 -15 -15 -15 -15 -15 -15 -15 -14 -14 -14 -14 -14 -14 -13 -13 -13 -13 -13 -13
-16 -15 -15 -15 -14 -14 -14 -14 -14 -14 -14 -14 -14 -14 -14 -14 -14 -14 -14 -14 -14 -14 -15 -15 -15 -15 -15 -15 -15 -15 -15 -14 -14 -14 -14 -14 -14 -13 -13 -13 -13 -13
-16 -16 -15 -15 -15 -15 -15 -14 -14 -14 -14 -14 -14 -14 -14 -14 -14 -14 -15 -15 -14 -15 -15 -15 -15 -15 -15 -15 -15 -15 -15 -15 -14 -14 -14 -14 -14 -14 -13 -13 -13 -14
-16 -16 -16 -15 -15 -15 -15 -15 -15 -15 -15 -15 -15 -15 -15 -15 -15 -15 -15 -15 -15 -15 -15 -15 -15 -15 -15 -15 -15 -15 -15 -15 -14 -14 -14 -14 -14 -14 -13 -13 -13 -14
-16 -16 -16 -16 -15 -15 -15 -15 -15 -15 -15 -15 -15 -15 -15 -15 -15 -15 -15 -15 -15 -15 -15 -15 -15 -16 -16 -15 -15 -15 -15 -15 -15 -14 -14 -14 -14 -14 -14 -13 -13 -14
-16 -16 -16 -16 -16 -16 -16 -15 -15 -15 -15 -15 -15 -15 -15 -15 -15 -16 -16 -16 -15 -15 -15 -15 -16 -16 -16 -16 -15 -15 -15 -15 -15 -15 -14 -14 -14 -14 -14 -14 -13 -14
-16 -16 -16 -16 -16 -16 -16 -16 -16 -16 -16 -16 -16 -16 -16 -16 -16 -16 -16 -16 -16 -16 -16 -16 -16 -16 -16 -16 -16 -15 -15 -15 -15 -15 -14 -14 -14 -14 -14 -14 -14 -14
-16 -16 -16 -16 -17 -16 -16 -16 -16 -16 -16 -16 -16 -16 -16 -16 -16 -16 -16 -16 -16 -16 -16 -16 -16 -16 -16 -16 -16 -16 -15 -15 -15 -15 -15 -15 -15 -14 -14 -14 -14 -14
-17 -17 -17 -17 -17 -17 -16 -16 -16 -16 -16 -16 -16 -16 -16 -16 -16 -16 -16 -16 -16 -16 -16 -16 -16 -16 -16 -16 -16 -16 -16 -15 -15 -15 -15 -15 -15 -15 -14 -14 -14 -14
-17 -17 -17 -17 -17 -17 -17 -17 -17 -17 -17 -17 -17 -16 -16 -16 -16 -16 -16 -16 -16 -16 -16 -16 -16 -16 -16 -16 -16 -16 -16 -16 -15 -15 -15 -15 -15 -15 -15 -15 -14 -14
-17 -17 -17 -17 -17 -17 -17 -17 -17 -17 -17 -17 -17 -17 -17 -17 -16 -16 -16 -16 -16 -16 -16 -16 -16 -16 -16 -16 -16 -16 -16 -16 -16 -16 -15 -15 -15 -15 -15 -15 -15 -14
-17 -17 -17 -17 -17 -17 -17 -17 -17 -17 -17 -17 -17 -17 -17 -17 -17 -17 -16 -16 -16 -16 -16 -16 -16 -16 -16 -16 -16 -16 -16 -16 -16 -16 -16 -15 -15 -15 -15 -15 -15 -15
-17 -17 -17 -17 -17 -17 -17 -17 -17 -17 -17 -17 -17 -17 -17 -17 -17 -17 -17 -17 -17 -16 -16 -16 -16 -16 -16 -16 -16 -16 -16 -16 -16 -16 -16 -16 -16 -16 -15 -15 -15 -15
-17 -17 -17 -17 -17 -17 -17 -17 -17 -17 -17 -17 -17 -17 -17 -17 -17 -17 -17 -17 -17 -17 -17 -17 -16 -16 -16 -16 -16 -16 -16 -16 -16 -16 -16 -16 -16 -16 -16 -15 -15 -15
-17 -17 -17 -18 -18 -18 -18 -18 -18 -18 -18 -18 -17 -17 -17 -17 -17 -17 -17 -17 -17 -17 -17 -17 -17 -17 -17 -16 -16 -16 -16 -16 -17 -17 -17 -16 -16 -16 -16 -16 -15 -15
-18 -18 -18 -18 -18 -18 -18 -18 -18 -18 -18 -18 -17 -17 -17 -17 -17 -17 -17 -17 -17 -17 -17 -17 -17 -17 -17 -17 -17 -17 -17 -17 -17 -17 -17 -17 -17 -16 -16 -16 -16 -15
-18 -18 -18 -18 -18 -18 -18 -18 -18 -18 -18 -18 -18 -18 -18 -18 -17 -17 -17 -17 -17 -17 -17 -17 -17 -17 -17 -17 -17 -17 -17 -17 -17 -17 -17 -17 -17 -17 -17 -16 -16 -16
-18 -18 -18 -18 -18 -18 -18 -18 -18 -18 -18 -18 -18 -18 -18 -18 -18 -18 -18 -18 -18 -18 -17 -17 -17 -17 -17 -17 -17 -17 -17 -17 -17 -17 -17 -17 -17 -17 -17 -17 -16 -16
-18 -18 -18 -18 -18 -18 -19 -19 -19 -19 -19 -19 -19 -19 -19 -19 -19 -18 -18 -18 -18 -18 -18 -18 -18 -18 -18 -17 -17 -17 -17 -17 -17 -17 -17 -17 -17 -17 -17 -17 -17 -16
-19 -19 -19 -19 -19 -19 -19 -19 -19 -19 -19 -19 -19 -19 -19 -19 -19 -19 -19 -19 -19 -18 -18 -18 -18 -18 -18 -18 -18 -18 -18 -18 -18 -17 -17 -17 -17 -17 -17 -17 -17 -17
-19 -19 -19 -19 -19 -19 -19 -20 -20 -20 -20 -20 -20 -20 -19 -19 -19 -19 -19 -19 -19 -19 -19 -19 -19 -19 -19 -18 -18 -18 -18 -18 -18 -18 -18 -18 -18 -18 -18 -18 -17 -17
Height
5798 5797 5796 5795 5794 5793 5793 5792 5791 5790 5789 5788 5787 5786 5785 5784 5783 5782 5780 5779 5777 5776 5775 5774 5773 5771 5770 5769 5767 5766 5765 5764 5762 5760 5758 5756 5755 5753 5751 5749 5748 5746
5795 5793 5792 5791 5790 5789 5789 5788 5787 5786 5785 5784 5783 5782 5781 5780 5779 5777 5776 5775 5774 5773 5772 5771 5769 5768 5767 5765 5764 5762 5761 5759 5758 5755 5753 5752 5750 5749 5747 5745 5743 5741
5791 5790 5789 5788 5787 5786 5785 5784 5782 5781 5780 5779 5778 5778 5776 5775 5774 5773 5772 5771 5770 5769 5768 5767 5766 5764 5763 5761 5759 5758 5756 5755 5753 5751 5749 5747 5745 5744 5742 5740 5738 5736
5788 5787 5786 5785 5784 5783 5781 5780 5778 5777 5776 5775 5774 5773 5772 5771 5770 5769 5768 5767 5766 5765 5764 5763 5762 5760 5758 5757 5755 5753 5752 5750 5749 5747 5745 5743 5741 5739 5738 5736 5733 5731
5784 5783 5782 5781 5780 5779 5778 5776 5774 5773 5772 5771 5770 5768 5767 5766 5765 5764 5764 5763 5761 5760 5759 5758 5757 5755 5754 5752 5751 5749 5747 5746 5744 5742 5741 5739 5736 5734 5733 5731 5729 5727
5780 5779 5778 5777 5776 5775 5774 5772 5771 5769 5768 5766 5765 5764 5763 5761 5760 5759 5758 5757 5756 5755 5754 5753 5752 5750 5749 5747 5746 5744 5743 5742 5740 5738 5736 5734 5732 5730 5728 5726 5724 5723
5776 5774 5773 5773 5772 5771 5770 5768 5766 5765 5763 5762 5760 5759 5758 5757 5755 5754 5753 5751 5750 5750 5748 5747 5746 5745 5744 5743 5741 5740 5738 5737 5735 5733 5731 5730 5728 5726 5724 5722 5720 5718
5772 5770 5769 5768 5767 5766 5765 5764 5762 5761 5759 5757 5756 5754 5753 5751 5750 5749 5747 5746 5745 5744 5743 5742 5741 5740 5739 5738 5737 5736 5734 5732 5731 5729 5727 5725 5724 5722 5720 5718 5716 5714
5768 5766 5765 5763 5762 5761 5760 5759 5757 5756 5755 5753 5751 5749 5748 5746 5745 5743 5742 5740 5739 5739 5738 5737 5736 5735 5734 5733 5732 5731 5729 5728 5726 5724 5722 5721 5720 5718 5716 5714 5712 5710
5764 5762 5761 5759 5757 5756 5755 5754 5753 5751 5749 5748 5746 5744 5743 5741 5740 5738 5737 5735 5734 5733 5732 5731 5730 5729 5728 5728 5727 5726 5724 5723 5721 5720 5718 5716 5715 5714 5711 5710 5708 5706
5759 5758 5756 5755 5753 5751 5750 5749 5747 5746 5744 5742 5741 5739 5737 5736 5734 5733 5732 5730 5729 5728 5727 5726 5725 5724 5723 5722 5721 5720 5719 5718 5717 5715 5714 5712 5710 5709 5707 5705 5704 5702
5755 5753 5752 5750 5748 5747 5745 5744 5742 5740 5739 5737 5736 5734 5732 5731 5729 5728 5726 5725 5724 5723 5722 5721 5720 5719 5718 5717 5715 5714 5713 5712 5712 5711 5709 5708 5706 5704 5703 5701 5700 5698
5750 5749 5747 5746 5744 5742 5740 5739 5737 5735 5734 5732 5731 5729 5727 5726 5724 5723 5721 5720 5719 5718 5716 5715 5714 5714 5712 5711 5710 5709 5708 5707 5706 5706 5705 5704 5702 5700 5698 5697 5696 5694
5746 5744 5742 5741 5739 5737 5736 5734 5732 5731 5729 5727 5726 5724 5722 5721 5719 5718 5716 5715 5713 5712 5711 5710 5709 5708 5707 5706 5705 5703 5702 5702 5701 5701 5700 5699 5698 5696 5694 5693 5692 5690
5741 5739 5738 5736 5734 5733 5731 5730 5728 5726 5724 5722 5720 5719 5717 5715 5714 5713 5711 5709 5708 5706 5705 5704 5703 5702 5702 5701 5700 5698 5696 5695 5695 5696 5695 5694 5693 5692 5691 5689 5687 5686
5736 5735 5733 5731 5730 5728 5727 5725 5723 5720 5718 5717 5715 5713 5711 5710 5708 5707 5705 5703 5702 5700 5699 5698 5697 5696 5695 5695 5694 5693 5691 5690 5689 5689 5690 5689 5688 5687 5686 5685 5683 5682
5732 5731 5729 5727 5726 5724 5722 5720 5718 5715 5713 5711 5710 5708 5706 5704 5702 5700 5699 5697 5696 5694 5693 5691 5690 5689 5689 5688 5687 5687 5686 5684 5683 5683 5683 5684 5683 5682 5681 5680 5679 5678
5728 5727 5725 5723 5721 5719 5717 5715 5712 5710 5708 5706 5704 5702 5701 5699 5697 5695 5693 5691 5690 5688 5686 5685 5684 5682 5682 5681 5680 5680 5679 5678 5677 5677 5677 5677 5677 5677 5676 5675 5674 5673
5723 5722 5720 5718 5716 5714 5712 5710 5708 5705 5703 5701 5698 5697 5695 5693 5691 5689 5688 5686 5684 5681 5680 5678 5677 5676 5675 5674 5673 5672 5672 5671 5671 5670 5670 5670 5671 5671 5671 5670 5669 5668
5719 5717 5715 5713 5711 5709 5707 5705 5703 5701 5698 5696 5693 5691 5689 5687 5685 5683 5682 5680 5678 5675 5673 5672 5670 5669 5668 5666 5665 5664 5664 5664 5664 5663 5663 5663 5664 5664 5664 5664 5664 5663
5714 5712 5710 5708 5706 5704 5702 5700 5698 5696 5693 5691 5688 5686 5684 5681 5679 5677 5675 5673 5671 5668 5666 5664 5663 5662 5660 5659 5658 5657 5656 5656 5656 5656 5656 5656 5656 5657 5657 5658 5658 5657
5709 5707 5705 5703 5701 5699 5697 5695 5692 5690 5687 5685 5683 5680 5678 5675 5672 5670 5668 5665 5663 5661 5658 5656 5655 5653 5652 5651 5650 5649 5649 5648 5647 5647 5648 5648 5648 5649 5650 5651 5651 5651
5705 5703 5701 5698 5696 5694 5692 5689 5687 5684 5682 5679 5677 5674 5671 5668 5666 5663 5660 5658 5655 5653 5650 5648 5646 5644 5643 5641 5640 5640 5640 5639 5639 5638 5639 5639 5640 5641 5642 5643 5644 5645
5701 5699 5696 5694 5692 5689 5687 5684 5682 5679 5676 5674 5671 5668 5665 5662 5659 5656 5653 5651 5648 5645 5642 5639 5636 5635 5633 5631 5630 5629 5629 5629 5629 5629 5629 5630 5631 5632 5633 5635 5636 5638
5697 5695 5692 5690 5687 5685 5682 5680 5677 5674 5671 5668 5666 5663 5659 5655 5652 5648 5645 5643 5640 5638 5634 5630 5627 5625 5623 5622 5620 5618 5618 5618 5619 5619 5619 5619 5620 5622 5624 5626 5628 5629
5692 5690 5688 5685 5683 5680 5678 5676 5673 5670 5666 5663 5660 5657 5654 5650 5646 5642 5638 5635 5632 5629 5626 5622 5618 5614 5612 5610 5609 5608 5607 5606 5607 5608 5609 5609 5610 5612 5614 5616 5618 5620
Wind_Speed
28 29 29 30 31 31 31 31 30 31 31 32 33 34 35 35 35 35 35 35 34 32 30 28 27 27 28 29 29 29 29 29 30 31 31 32 32 35 37 37 37 36
29 30 30 31 32 33 33 33 32 32 33 33 34 35 36 37 37 37 36 35 35 33 30 28 28 28 29 30 30 30 31 30 31 32 33 34 34 35 37 38 37 36
31 31 32 32 33 33 34 34 34 34 34 35 36 37 38 38 38 38 37 36 35 34 32 30 29 29 30 30 31 31 32 32 32 33 34 35 36 36 37 37 36 36
33 33 33 33 34 34 34 35 35 36 35 36 37 38 39 39 39 39 38 37 37 35 33 32 30 30 31 31 32 32 33 33 33 34 35 36 37 37 37 37 36 35
35 35 35 35 35 35 36 36 37 37 37 38 39 39 40 41 41 40 40 39 38 37 35 33 32 32 31 31 32 33 33 34 35 35 35 36 37 37 37 37 35 33
37 36 36 36 36 37 37 37 38 38 39 40 40 41 41 42 42 42 41 40 40 38 37 35 34 33 33 32 32 33 34 34 35 36 36 36 36 36 37 37 35 32
39 39 38 38 38 38 38 38 38 39 39 40 41 42 42 43 43 43 42 42 41 40 38 37 36 34 34 34 33 34 34 34 35 36 36 36 36 36 35 36 34 31
41 41 41 40 40 40 39 39 39 39 40 41 42 43 43 44 44 44 43 43 42 41 40 38 37 36 35 35 34 35 35 35 35 35 36 36 35 35 34 34 33 31
43 43 43 43 42 41 40 40 40 40 41 41 42 43 44 44 44 44 44 43 43 42 41 40 39 38 37 36 36 36 35 35 35 35 35 35 34 34 34 34 33 31
44 45 45 45 44 42 41 42 42 42 42 42 42 43 44 44 44 44 44 44 44 43 42 41 40 40 40 40 39 38 37 36 35 35 35 35 34 34 34 33 33 31
46 46 46 45 44 43 43 43 43 43 43 42 43 43 43 44 44 44 44 44 44 44 43 43 42 42 42 42 41 40 38 37 36 34 34 35 34 34 34 33 33 31
47 47 46 45 44 44 44 44 44 43 43 42 42 42 43 44 44 44 45 45 44 44 44 44 44 43 42 42 41 40 39 37 36 34 34 34 34 34 34 33 33 32
47 46 46 45 45 45 45 44 44 43 42 42 42 42 42 43 44 44 44 45 45 45 44 44 44 43 42 41 40 39 39 37 36 35 34 33 33 34 34 33 32 31
46 46 45 45 45 45 44 43 42 42 42 41 42 42 42 43 43 44 44 45 45 45 44 44 44 43 42 42 41 40 40 38 37 36 35 34 33 33 34 33 31 31
45 45 45 45 44 44 43 42 42 42 42 42 42 43 43 43 44 44 44 45 45 45 45 45 45 44 43 43 42 41 42 41 39 38 36 36 34 33 33 33 32 31
44 44 44 44 44 43 42 42 42 43 43 44 44 44 44 44 45 45 45 45 46 46 47 47 46 46 45 45 44 43 43 43 42 40 38 37 36 34 33 33 32 31
43 43 43 43 43 42 42 42 43 45 46 46 46 46 46 46 47 47 47 47 47 48 48 48 48 48 48 47 47 46 45 45 44 42 40 38 37 35 33 34 34 32
42 41 42 42 42 42 43 44 46 47 47 47 47 47 47 47 48 49 49 49 50 50 50 50 51 51 50 50 50 49 48 47 46 45 42 40 38 36 34 34 35 34
41 41 41 42 42 44 45 46 47 47 47 47 48 48 48 48 49 49 50 51 52 52 53 53 53 53 53 53 52 52 50 49 48 47 45 43 41 39 36 34 35 35
41 42 43 44 45 46 47 47 47 47 48 48 49 50 51 51 52 52 52 53 54 54 55 55 55 55 55 55 55 54 53 52 50 49 47 45 43 41 38 35 35 36
42 43 44 45 46 46 46 47 47 48 49 50 51 52 53 54 55 56 56 56 57 58 58 58 58 58 58 57 57 56 56 55 53 51 50 47 45 42 40 37 35 36
42 43 43 44 45 45 46 47 48 49 50 51 52 53 54 55 56 57 58 59 59 60 60 61 61 61 61 61 60 59 58 58 57 55 52 50 47 44 42 39 36 36
40 41 42 43 44 45 46 47 48 49 49 50 51 52 52 53 54 55 56 57 58 59 60 61 62 62 63 63 63 62 61 60 59 58 56 53 50 47 44 42 39 37
40 41 42 43 44 44 45 45 46 46 47 48 49 49 50 52 53 53 54 55 56 57 58 60 60 61 61 62 63 63 63 62 61 60 59 56 53 49 46 44 42 39
39 40 40 41 41 41 42 42 43 44 45 46 47 48 49 50 51 52 53 54 55 55 56 58 59 60 60 61 62 62 63 63 62 61 60 58 55 52 48 45 44 42
37 37 37 37 38 38 39 40 41 42 43 44 44 45 46 47 48 49 51 52 53 54 54 55 56 58 59 59 60 60 61 62 62 61 60 59 56 53 49 46 45 44
Wind_Direction
288 291 292 293 294 295 295 294 294 295 296 297 297 296 296 295 295 294 294 294 294 294 295 294 292 292 294 297 298 299 299 299 300 300 300 302 302 302 301 299 294 286
289 290 292 294 295 295 295 295 295 295 295 296 297 297 297 296 296 295 295 294 295 295 295 293 291 291 293 295 297 298 298 298 299 299 299 301 302 303 303 302 296 287
287 288 290 292 293 295 295 295 295 295 295 295 296 296 296 296 295 295 294 293 293 294 293 292 291 291 293 295 297 297 298 297 297 297 299 301 302 304 305 304 299 289
286 286 286 287 290 293 295 296 295 294 294 294 294 295 295 295 294 294 293 292 292 293 293 293 293 292 293 295 296 297 297 297 296 296 298 301 302 304 306 307 301 290
287 286 285 286 289 294 296 296 295 294 294 294 294 294 294 294 294 293 293 292 292 293 293 294 294 294 294 295 295 296 296 296 296 296 298 301 303 304 306 307 303 292
290 290 289 288 291 294 296 295 294 293 293 293 293 293 293 293 293 293 293 292 291 292 293 294 295 296 296 296 296 296 296 296 296 297 299 301 303 304 306 308 303 292
293 293 292 291 292 295 295 294 293 292 292 292 292 293 293 293 293 292 292 291 291 292 293 295 296 297 297 296 296 296 296 296 296 297 299 301 303 304 306 308 303 291
293 293 293 293 294 295 295 294 293 292 292 292 292 292 292 292 292 292 291 291 291 292 293 295 295 296 296 296 295 295 296 297 297 298 298 300 302 304 306 308 304 291
292 293 294 294 294 295 295 294 293 292 292 291 291 291 291 291 291 291 291 290 290 291 292 294 294 295 295 295 295 295 296 297 297 298 298 299 301 303 305 308 305 293
291 292 294 294 295 295 295 294 293 292 291 290 290 290 290 290 290 290 289 289 289 290 291 292 293 295 296 296 296 296 296 297 298 298 299 299 300 303 305 308 307 296
290 292 293 294 295 296 295 294 293 292 291 290 290 289 289 289 289 289 289 289 289 289 290 291 293 295 297 298 298 297 297 297 298 298 298 300 301 303 305 307 307 299
290 291 292 294 296 296 295 294 293 292 291 291 291 290 290 290 289 289 289 289 289 290 291 292 293 295 297 298 298 298 298 297 297 297 298 300 301 302 304 306 307 300
290 291 293 295 296 296 294 293 292 292 292 292 292 292 291 291 290 290 290 290 290 290 291 292 293 295 296 297 297 297 297 297 297 298 298 299 300 300 302 304 306 301
289 292 294 295 294 294 293 293 293 294 294 294 293 293 292 292 292 291 291 291 291 291 291 292 293 294 295 296 297 297 297 296 296 297 298 298 298 298 299 301 303 301
290 292 293 293 293 293 294 295 295 296 296 296 295 294 293 293 292 292 291 291 291 290 290 291 291 292 293 294 296 296 296 296 296 296 296 297 297 296 296 297 299 299
291 292 292 292 293 294 295 296 297 297 297 297 296 295 295 294 293 292 292 291 291 290 290 289 290 290 291 292 293 294 294 295 295 295 295 295 295 294 292 292 294 295
290 291 291 292 293 294 295 296 297 298 297 297 296 295 295 294 294 293 292 292 291 291 290 290 290 289 290 290 291 292 292 292 293 293 293 293 293 291 289 288 288 289
289 290 291 292 292 293 295 296 297 297 297 296 296 295 294 294 293 293 292 292 291 291 290 290 290 289 289 289 289 290 290 290 290 290 290 290 289 289 287 285 285 285
289 290 291 291 292 293 294 296 296 297 297 297 296 296 295 294 293 293 292 292 292 291 290 290 289 289 289 288 288 288 288 288 288 288 288 287 286 286 285 282 281 281
289 289 290 291 292 293 295 296 297 297 297 297 297 297 296 295 294 293 292 292 291 291 290 289 289 288 288 288 287 287 287 287 286 286 286 285 284 283 282 280 278 278
290 290 291 292 293 295 296 297 297 298 298 297 297 297 296 295 295 294 293 292 291 290 289 288 287 286 286 285 285 285 285 284 284 284 283 282 281 280 279 277 274 273
292 293 294 295 296 297 298 298 298 298 298 298 297 297 296 296 295 294 293 292 291 290 289 288 286 285 284 283 282 282 281 281 281 281 280 280 279 277 276 273 270 269
295 296 297 297 298 298 299 299 299 299 299 299 299 299 298 297 296 295 294 293 292 291 289 288 286 285 284 282 281 280 279 279 278 278 278 277 276 274 273 271 268 265
297 297 297 298 298 299 300 300 301 301 301 301 301 301 300 300 299 298 297 295 294 293 291 290 287 285 284 282 280 279 277 276 276 275 275 274 273 271 270 268 265 262
297 297 297 299 299 301 302 302 303 303 303 303 304 304 304 303 303 302 301 300 298 296 294 292 290 287 284 282 280 278 276 275 273 272 272 272 271 269 267 264 263 260
297 298 299 301 302 302 303 304 304 305 305 306 306 307 307 307 307 307 306 305 303 301 299 297 294 291 287 284 280 277 275 273 272 270 269 269 268 267 264 261 259 257